QPF
0.10 0.09 0.08 0.06 0.05 0.03 0.03 0.02 0.02 0.03 0.04 0.04 0.05 0.04 0.04 0.04 0.05 0.05 0.04 0.04 0.05 0.05 0.06 0.07 0.08 0.06 0.07 0.07 0.08 0.09 0.09 0.10 0.09 0.08 0.08 0.09 0.10 0.09 0.07 0.07 0.07 0.06 0.05
0.08 0.08 0.07 0.05 0.04 0.04 0.03 0.03 0.03 0.03 0.04 0.04 0.04 0.04 0.04 0.05 0.05 0.05 0.03 0.03 0.05 0.06 0.07 0.07 0.09 0.10 0.09 0.07 0.08 0.08 0.08 0.09 0.09 0.07 0.07 0.08 0.09 0.08 0.07 0.07 0.06 0.05 0.05
0.06 0.05 0.05 0.04 0.04 0.04 0.04 0.06 0.04 0.04 0.05 0.05 0.04 0.03 0.04 0.04 0.05 0.05 0.05 0.05 0.05 0.05 0.07 0.08 0.08 0.09 0.09 0.09 0.09 0.09 0.08 0.07 0.09 0.07 0.06 0.06 0.06 0.06 0.07 0.07 0.06 0.06 0.05
0.04 0.04 0.05 0.04 0.03 0.04 0.04 0.05 0.05 0.04 0.04 0.04 0.04 0.03 0.03 0.03 0.04 0.04 0.04 0.05 0.06 0.06 0.07 0.08 0.09 0.10 0.09 0.09 0.10 0.10 0.09 0.08 0.09 0.08 0.06 0.06 0.06 0.07 0.08 0.08 0.09 0.09 0.08
0.07 0.06 0.05 0.05 0.05 0.04 0.04 0.04 0.04 0.04 0.04 0.04 0.04 0.03 0.04 0.03 0.04 0.04 0.04 0.04 0.06 0.06 0.06 0.07 0.07 0.06 0.05 0.05 0.05 0.06 0.06 0.07 0.08 0.08 0.08 0.07 0.06 0.07 0.07 0.07 0.08 0.10 0.11
0.07 0.09 0.08 0.06 0.06 0.06 0.05 0.06 0.07 0.07 0.07 0.07 0.07 0.05 0.04 0.03 0.02 0.02 0.02 0.03 0.05 0.04 0.05 0.06 0.06 0.05 0.04 0.03 0.02 0.03 0.03 0.04 0.05 0.06 0.07 0.06 0.06 0.07 0.08 0.08 0.10 0.12 0.10
0.10 0.09 0.08 0.08 0.09 0.09 0.10 0.09 0.10 0.11 0.10 0.08 0.06 0.05 0.05 0.04 0.02 0.01 0.02 0.04 0.06 0.05 0.04 0.04 0.04 0.03 0.04 0.04 0.03 0.03 0.03 0.02 0.02 0.03 0.04 0.05 0.06 0.07 0.07 0.08 0.10 0.10 0.09
0.09 0.10 0.09 0.08 0.07 0.06 0.07 0.09 0.07 0.06 0.06 0.06 0.06 0.05 0.04 0.03 0.02 0.02 0.02 0.03 0.04 0.04 0.04 0.04 0.04 0.04 0.04 0.04 0.03 0.04 0.04 0.04 0.03 0.02 0.03 0.04 0.04 0.04 0.05 0.05 0.06 0.06 0.05
0.10 0.10 0.10 0.12 0.10 0.08 0.07 0.06 0.06 0.06 0.06 0.06 0.07 0.05 0.04 0.04 0.03 0.02 0.02 0.03 0.04 0.03 0.03 0.03 0.03 0.03 0.03 0.02 0.03 0.03 0.04 0.04 0.02 0.01 0.01 0.01 0.01 0.01 0.01 0.02 0.03 0.05 0.04
0.08 0.06 0.05 0.07 0.08 0.06 0.05 0.05 0.05 0.05 0.05 0.04 0.05 0.04 0.04 0.03 0.02 0.02 0.02 0.03 0.03 0.03 0.02 0.02 0.01 0.01 0.01 0.01 0.02 0.02 0.03 0.03 0.03 0.02 0.02 0.02 0.02 0.02 0.01 0.01 0.03 0.04 0.04
0.09 0.05 0.05 0.05 0.06 0.04 0.04 0.04 0.05 0.04 0.04 0.04 0.04 0.04 0.03 0.02 0.02 0.01 0.01 0.01 0.02 0.03 0.03 0.02 0.01 0.01 0.00 0.01 0.01 0.02 0.02 0.02 0.03 0.03 0.04 0.04 0.04 0.04 0.04 0.04 0.05 0.05 0.04
0.09 0.05 0.05 0.05 0.05 0.04 0.04 0.04 0.04 0.04 0.03 0.04 0.03 0.03 0.03 0.02 0.01 0.01 0.01 0.01 0.01 0.02 0.02 0.02 0.01 0.01 0.01 0.01 0.01 0.01 0.02 0.02 0.03 0.04 0.04 0.04 0.04 0.04 0.04 0.05 0.06 0.05 0.04
0.07 0.06 0.06 0.06 0.06 0.05 0.04 0.03 0.04 0.03 0.03 0.02 0.02 0.02 0.02 0.02 0.01 0.01 0.02 0.02 0.02 0.02 0.01 0.01 0.01 0.01 0.01 0.01 0.01 0.01 0.01 0.02 0.03 0.04 0.05 0.04 0.04 0.04 0.04 0.04 0.05 0.06 0.05
0.06 0.07 0.06 0.05 0.05 0.04 0.03 0.02 0.02 0.01 0.01 0.01 0.01 0.01 0.02 0.02 0.02 0.02 0.02 0.02 0.02 0.02 0.01 0.01 0.01 0.02 0.02 0.02 0.02 0.02 0.03 0.04 0.04 0.05 0.05 0.05 0.04 0.04 0.04 0.05 0.05 0.06 0.06
0.05 0.05 0.03 0.02 0.02 0.02 0.01 0.01 0.01 0.01 0.01 0.01 0.01 0.01 0.02 0.03 0.02 0.02 0.02 0.02 0.02 0.02 0.01 0.02 0.03 0.03 0.04 0.05 0.05 0.05 0.05 0.05 0.05 0.06 0.07 0.06 0.05 0.05 0.05 0.05 0.06 0.06 0.07
0.04 0.03 0.02 0.01 0.01 0.01 0.01 0.01 0.02 0.02 0.02 0.02 0.02 0.02 0.02 0.02 0.02 0.02 0.01 0.01 0.01 0.01 0.01 0.02 0.03 0.04 0.04 0.05 0.05 0.05 0.06 0.07 0.07 0.07 0.07 0.06 0.07 0.06 0.06 0.05 0.06 0.07 0.07
0.04 0.03 0.02 0.01 0.01 0.01 0.02 0.02 0.02 0.03 0.03 0.02 0.02 0.02 0.02 0.01 0.01 0.01 0.02 0.02 0.02 0.02 0.02 0.03 0.04 0.04 0.04 0.04 0.04 0.05 0.06 0.07 0.07 0.07 0.07 0.07 0.07 0.07 0.06 0.06 0.07 0.06 0.06
0.03 0.02 0.01 0.00 0.01 0.01 0.01 0.02 0.02 0.03 0.03 0.03 0.03 0.03 0.02 0.01 0.01 0.01 0.02 0.03 0.03 0.04 0.04 0.05 0.05 0.05 0.05 0.05 0.06 0.06 0.06 0.06 0.06 0.06 0.06 0.06 0.06 0.05 0.05 0.06 0.06 0.05 0.05
0.02 0.01 0.00 0.00 0.00 0.01 0.01 0.02 0.02 0.02 0.02 0.02 0.01 0.01 0.02 0.01 0.01 0.01 0.02 0.03 0.04 0.05 0.05 0.04 0.05 0.05 0.06 0.07 0.07 0.06 0.07 0.06 0.06 0.05 0.05 0.05 0.04 0.04 0.04 0.05 0.04 0.04 0.04
0.01 0.00 0.00 0.00 0.01 0.01 0.01 0.01 0.01 0.01 0.01 0.01 0.01 0.00 0.01 0.01 0.02 0.02 0.03 0.04 0.04 0.04 0.04 0.04 0.04 0.04 0.05 0.07 0.06 0.06 0.07 0.07 0.05 0.04 0.04 0.04 0.03 0.03 0.04 0.03 0.03 0.04 0.05
0.00 0.00 0.00 0.01 0.01 0.01 0.01 0.00 0.00 0.01 0.01 0.01 0.01 0.01 0.01 0.01 0.01 0.02 0.03 0.04 0.04 0.04 0.04 0.04 0.04 0.05 0.06 0.06 0.07 0.08 0.08 0.07 0.06 0.05 0.04 0.03 0.03 0.03 0.03 0.02 0.03 0.03 0.04
0.01 0.00 0.00 0.01 0.01 0.01 0.00 0.00 0.00 0.00 0.01 0.01 0.01 0.01 0.01 0.01 0.01 0.01 0.02 0.03 0.04 0.03 0.03 0.03 0.04 0.05 0.05 0.05 0.07 0.07 0.06 0.05 0.04 0.03 0.02 0.02 0.02 0.03 0.03 0.02 0.02 0.03 0.04
0.01 0.01 0.01 0.00 0.00 0.00 0.00 0.00 0.00 0.00 0.00 0.01 0.01 0.01 0.01 0.01 0.01 0.01 0.01 0.02 0.02 0.02 0.02 0.03 0.04 0.04 0.04 0.04 0.04 0.03 0.03 0.02 0.02 0.02 0.02 0.02 0.02 0.02 0.02 0.02 0.02 0.03 0.04
0.01 0.00 0.00 0.00 0.00 0.00 0.00 0.00 0.00 0.00 0.00 0.00 0.01 0.01 0.00 0.00 0.01 0.01 0.01 0.01 0.01 0.01 0.01 0.02 0.02 0.02 0.02 0.02 0.02 0.02 0.01 0.01 0.01 0.01 0.01 0.01 0.01 0.01 0.02 0.02 0.02 0.03 0.04
0.00 0.00 0.01 0.00 0.00 0.00 0.00 0.00 0.00 0.00 0.00 0.00 0.01 0.00 0.00 0.00 0.00 0.00 0.00 0.01 0.00 0.00 0.01 0.01 0.01 0.01 0.01 0.01 0.01 0.01 0.01 0.00 0.00 0.00 0.00 0.00 0.00 0.01 0.02 0.03 0.04 0.04 0.04
0.00 0.00 0.00 0.00 0.00 0.00 0.00 0.00 0.00 0.00 0.00 0.00 0.00 0.00 0.00 0.00 0.00 0.01 0.01 0.01 0.00 0.00 0.00 0.00 0.00 0.00 0.00 0.00 0.00 0.00 0.00 0.00 0.00 0.00 0.00 0.00 0.01 0.01 0.01 0.02 0.03 0.03 0.04
MSLP
1012.69 1012.71 1012.71 1012.64 1012.48 1012.22 1011.87 1011.45 1011.00 1010.55 1010.15 1009.81 1009.56 1009.37 1009.22 1009.10 1008.96 1008.79 1008.56 1008.27 1007.92 1007.52 1007.10 1006.66 1006.24 1005.83 1005.46 1005.14 1004.86 1004.63 1004.43 1004.26 1004.12 1003.99 1003.85 1003.71 1003.56 1003.41 1003.26 1003.13 1003.06 1003.06 1003.15
1012.54 1012.56 1012.57 1012.53 1012.41 1012.19 1011.89 1011.50 1011.08 1010.66 1010.26 1009.92 1009.65 1009.44 1009.28 1009.14 1008.99 1008.81 1008.58 1008.29 1007.95 1007.57 1007.17 1006.76 1006.36 1005.98 1005.64 1005.34 1005.08 1004.86 1004.67 1004.50 1004.34 1004.18 1004.02 1003.85 1003.66 1003.48 1003.30 1003.15 1003.04 1003.02 1003.08
1012.45 1012.47 1012.49 1012.48 1012.39 1012.22 1011.96 1011.62 1011.25 1010.86 1010.48 1010.15 1009.88 1009.66 1009.47 1009.30 1009.12 1008.91 1008.66 1008.37 1008.02 1007.65 1007.26 1006.87 1006.49 1006.14 1005.83 1005.55 1005.31 1005.09 1004.90 1004.72 1004.54 1004.36 1004.18 1003.99 1003.79 1003.60 1003.42 1003.26 1003.16 1003.12 1003.17
1012.46 1012.48 1012.50 1012.50 1012.44 1012.30 1012.09 1011.80 1011.46 1011.11 1010.76 1010.44 1010.16 1009.93 1009.71 1009.51 1009.29 1009.05 1008.77 1008.44 1008.09 1007.71 1007.33 1006.95 1006.60 1006.27 1005.98 1005.72 1005.48 1005.27 1005.06 1004.86 1004.67 1004.47 1004.28 1004.08 1003.89 1003.71 1003.55 1003.42 1003.33 1003.30 1003.35
1012.56 1012.57 1012.59 1012.60 1012.55 1012.43 1012.23 1011.97 1011.67 1011.34 1011.01 1010.70 1010.41 1010.15 1009.91 1009.67 1009.41 1009.13 1008.81 1008.47 1008.10 1007.72 1007.34 1006.98 1006.64 1006.34 1006.06 1005.81 1005.57 1005.34 1005.12 1004.90 1004.69 1004.47 1004.27 1004.08 1003.91 1003.76 1003.63 1003.55 1003.49 1003.49 1003.53
1012.72 1012.72 1012.73 1012.72 1012.67 1012.55 1012.36 1012.11 1011.81 1011.48 1011.15 1010.83 1010.53 1010.25 1009.97 1009.69 1009.40 1009.09 1008.75 1008.38 1008.01 1007.63 1007.27 1006.92 1006.61 1006.32 1006.05 1005.80 1005.56 1005.32 1005.07 1004.83 1004.59 1004.36 1004.15 1003.97 1003.82 1003.71 1003.63 1003.59 1003.58 1003.61 1003.66
1012.89 1012.88 1012.87 1012.84 1012.77 1012.63 1012.42 1012.16 1011.84 1011.50 1011.15 1010.81 1010.48 1010.17 1009.86 1009.56 1009.24 1008.91 1008.55 1008.19 1007.82 1007.46 1007.12 1006.80 1006.50 1006.23 1005.97 1005.72 1005.47 1005.21 1004.94 1004.66 1004.40 1004.15 1003.94 1003.76 1003.63 1003.55 1003.52 1003.52 1003.55 1003.60 1003.66
1013.02 1013.00 1012.98 1012.92 1012.82 1012.65 1012.41 1012.10 1011.76 1011.38 1011.00 1010.63 1010.27 1009.93 1009.60 1009.28 1008.95 1008.62 1008.27 1007.92 1007.58 1007.24 1006.93 1006.63 1006.36 1006.10 1005.85 1005.60 1005.33 1005.05 1004.76 1004.46 1004.17 1003.90 1003.68 1003.50 1003.38 1003.31 1003.30 1003.33 1003.38 1003.44 1003.49
1013.09 1013.06 1013.02 1012.94 1012.81 1012.60 1012.32 1011.97 1011.58 1011.17 1010.75 1010.35 1009.97 1009.61 1009.27 1008.95 1008.63 1008.31 1007.99 1007.67 1007.35 1007.05 1006.76 1006.48 1006.23 1005.98 1005.73 1005.48 1005.20 1004.91 1004.59 1004.27 1003.96 1003.67 1003.42 1003.23 1003.10 1003.04 1003.02 1003.05 1003.09 1003.14 1003.19
1013.08 1013.05 1013.00 1012.90 1012.74 1012.49 1012.17 1011.79 1011.36 1010.92 1010.47 1010.05 1009.66 1009.30 1008.97 1008.66 1008.37 1008.08 1007.79 1007.50 1007.21 1006.93 1006.66 1006.40 1006.15 1005.90 1005.65 1005.38 1005.10 1004.79 1004.46 1004.13 1003.80 1003.49 1003.23 1003.01 1002.86 1002.76 1002.72 1002.72 1002.74 1002.76 1002.77
1013.02 1012.99 1012.93 1012.81 1012.62 1012.35 1012.01 1011.60 1011.15 1010.69 1010.23 1009.81 1009.42 1009.08 1008.78 1008.50 1008.24 1007.99 1007.73 1007.47 1007.20 1006.93 1006.66 1006.39 1006.12 1005.86 1005.59 1005.31 1005.02 1004.70 1004.38 1004.04 1003.70 1003.39 1003.10 1002.86 1002.67 1002.54 1002.45 1002.40 1002.37 1002.35 1002.32
1012.92 1012.89 1012.82 1012.69 1012.48 1012.20 1011.83 1011.42 1010.97 1010.51 1010.06 1009.66 1009.31 1009.00 1008.74 1008.51 1008.29 1008.07 1007.83 1007.58 1007.31 1007.02 1006.72 1006.42 1006.12 1005.82 1005.52 1005.23 1004.93 1004.62 1004.30 1003.98 1003.66 1003.34 1003.05 1002.79 1002.56 1002.38 1002.23 1002.12 1002.03 1001.95 1001.88
1012.80 1012.75 1012.67 1012.53 1012.31 1012.02 1011.66 1011.25 1010.81 1010.37 1009.97 1009.60 1009.29 1009.04 1008.82 1008.64 1008.45 1008.26 1008.03 1007.77 1007.47 1007.14 1006.79 1006.43 1006.07 1005.73 1005.40 1005.09 1004.79 1004.50 1004.21 1003.92 1003.63 1003.34 1003.05 1002.78 1002.52 1002.29 1002.08 1001.90 1001.75 1001.61 1001.48
1012.65 1012.59 1012.49 1012.33 1012.10 1011.81 1011.46 1011.06 1010.65 1010.26 1009.89 1009.58 1009.33 1009.12 1008.96 1008.81 1008.66 1008.47 1008.24 1007.95 1007.60 1007.21 1006.79 1006.36 1005.94 1005.54 1005.18 1004.85 1004.56 1004.30 1004.06 1003.82 1003.58 1003.33 1003.07 1002.81 1002.53 1002.26 1002.00 1001.76 1001.53 1001.33 1001.16
1012.47 1012.38 1012.26 1012.08 1011.85 1011.55 1011.21 1010.84 1010.46 1010.10 1009.79 1009.53 1009.32 1009.17 1009.05 1008.93 1008.78 1008.60 1008.34 1008.01 1007.61 1007.15 1006.66 1006.15 1005.67 1005.23 1004.84 1004.51 1004.25 1004.04 1003.86 1003.69 1003.52 1003.33 1003.11 1002.86 1002.58 1002.28 1001.97 1001.66 1001.38 1001.11 1000.88
1012.23 1012.12 1011.97 1011.77 1011.53 1011.23 1010.90 1010.55 1010.20 1009.88 1009.60 1009.38 1009.21 1009.09 1008.99 1008.89 1008.75 1008.54 1008.26 1007.89 1007.44 1006.92 1006.37 1005.81 1005.28 1004.81 1004.42 1004.12 1003.90 1003.74 1003.64 1003.55 1003.45 1003.33 1003.16 1002.93 1002.65 1002.33 1001.98 1001.62 1001.26 1000.94 1000.65
1011.92 1011.78 1011.61 1011.41 1011.16 1010.86 1010.54 1010.20 1009.87 1009.56 1009.31 1009.10 1008.96 1008.85 1008.76 1008.65 1008.50 1008.29 1007.98 1007.58 1007.10 1006.55 1005.96 1005.39 1004.85 1004.38 1004.01 1003.75 1003.58 1003.50 1003.47 1003.46 1003.43 1003.37 1003.24 1003.03 1002.75 1002.41 1002.01 1001.60 1001.19 1000.80 1000.45
1011.55 1011.39 1011.21 1011.00 1010.74 1010.45 1010.13 1009.80 1009.48 1009.18 1008.93 1008.73 1008.58 1008.47 1008.36 1008.25 1008.09 1007.86 1007.55 1007.14 1006.65 1006.11 1005.54 1004.98 1004.47 1004.04 1003.72 1003.51 1003.41 1003.39 1003.43 1003.48 1003.51 1003.49 1003.39 1003.19 1002.90 1002.52 1002.09 1001.62 1001.15 1000.69 1000.28
1011.12 1010.96 1010.79 1010.58 1010.33 1010.05 1009.74 1009.41 1009.09 1008.79 1008.53 1008.31 1008.14 1008.01 1007.88 1007.75 1007.58 1007.35 1007.05 1006.66 1006.21 1005.71 1005.19 1004.70 1004.25 1003.90 1003.64 1003.50 1003.46 1003.50 1003.58 1003.68 1003.74 1003.73 1003.63 1003.42 1003.10 1002.69 1002.21 1001.69 1001.16 1000.65 1000.17
1010.67 1010.53 1010.37 1010.18 1009.95 1009.68 1009.38 1009.07 1008.74 1008.44 1008.16 1007.92 1007.72 1007.55 1007.40 1007.25 1007.08 1006.86 1006.59 1006.26 1005.87 1005.46 1005.03 1004.63 1004.28 1004.02 1003.84 1003.77 1003.78 1003.86 1003.96 1004.06 1004.11 1004.09 1003.96 1003.72 1003.37 1002.92 1002.40 1001.84 1001.26 1000.69 1000.17
1010.23 1010.12 1009.98 1009.82 1009.62 1009.38 1009.10 1008.80 1008.48 1008.17 1007.87 1007.61 1007.38 1007.19 1007.02 1006.86 1006.69 1006.50 1006.28 1006.02 1005.72 1005.41 1005.10 1004.82 1004.59 1004.42 1004.32 1004.31 1004.36 1004.44 1004.54 1004.61 1004.63 1004.56 1004.38 1004.09 1003.70 1003.21 1002.65 1002.06 1001.45 1000.86 1000.31
1009.85 1009.76 1009.65 1009.52 1009.36 1009.15 1008.90 1008.61 1008.31 1008.00 1007.70 1007.42 1007.18 1006.97 1006.79 1006.63 1006.48 1006.32 1006.16 1005.98 1005.79 1005.60 1005.41 1005.25 1005.13 1005.05 1005.03 1005.06 1005.12 1005.19 1005.25 1005.27 1005.22 1005.08 1004.84 1004.49 1004.05 1003.54 1002.96 1002.36 1001.76 1001.17 1000.61
1009.52 1009.45 1009.37 1009.27 1009.13 1008.96 1008.75 1008.50 1008.23 1007.94 1007.65 1007.38 1007.13 1006.92 1006.74 1006.59 1006.46 1006.35 1006.25 1006.16 1006.06 1005.98 1005.91 1005.86 1005.83 1005.83 1005.86 1005.91 1005.96 1005.99 1005.99 1005.93 1005.80 1005.59 1005.27 1004.88 1004.40 1003.87 1003.30 1002.72 1002.15 1001.59 1001.07
1009.25 1009.19 1009.12 1009.04 1008.93 1008.80 1008.63 1008.42 1008.19 1007.95 1007.70 1007.45 1007.23 1007.04 1006.87 1006.74 1006.64 1006.57 1006.52 1006.50 1006.49 1006.49 1006.51 1006.54 1006.59 1006.64 1006.70 1006.74 1006.77 1006.75 1006.67 1006.53 1006.32 1006.02 1005.64 1005.20 1004.71 1004.18 1003.63 1003.10 1002.57 1002.08 1001.61
1009.02 1008.94 1008.87 1008.80 1008.72 1008.62 1008.50 1008.35 1008.19 1008.00 1007.81 1007.62 1007.45 1007.29 1007.16 1007.05 1006.98 1006.94 1006.94 1006.95 1007.00 1007.06 1007.14 1007.23 1007.32 1007.40 1007.46 1007.48 1007.46 1007.38 1007.24 1007.01 1006.72 1006.35 1005.92 1005.44 1004.93 1004.42 1003.91 1003.43 1002.98 1002.55 1002.15
1008.79 1008.69 1008.61 1008.54 1008.47 1008.41 1008.35 1008.27 1008.19 1008.09 1007.98 1007.87 1007.76 1007.66 1007.57 1007.50 1007.45 1007.44 1007.45 1007.49 1007.56 1007.65 1007.75 1007.86 1007.96 1008.04 1008.09 1008.09 1008.02 1007.88 1007.66 1007.37 1007.00 1006.57 1006.09 1005.59 1005.08 1004.58 1004.11 1003.68 1003.29 1002.93 1002.59
Thickness
5676 5672 5668 5665 5662 5659 5655 5652 5649 5646 5644 5641 5638 5635 5633 5631 5629 5627 5625 5623 5621 5619 5618 5616 5614 5613 5612 5611 5611 5611 5610 5608 5606 5608 5610 5611 5611 5612 5613 5614 5615 5616 5617
5672 5668 5663 5660 5657 5654 5650 5647 5645 5642 5640 5636 5633 5631 5629 5627 5625 5622 5620 5618 5616 5614 5612 5610 5609 5608 5606 5605 5604 5604 5603 5603 5601 5601 5602 5603 5604 5605 5606 5607 5609 5610 5611
5668 5664 5660 5656 5652 5649 5646 5643 5641 5638 5636 5633 5629 5626 5624 5622 5619 5617 5615 5613 5611 5609 5607 5605 5603 5602 5600 5599 5598 5597 5598 5599 5598 5596 5596 5598 5598 5600 5600 5601 5602 5603 5604
5664 5660 5655 5651 5649 5646 5642 5640 5637 5635 5631 5628 5625 5622 5619 5617 5614 5612 5610 5608 5606 5604 5603 5601 5599 5597 5595 5594 5593 5592 5593 5592 5592 5591 5591 5592 5593 5594 5594 5593 5593 5595 5597
5659 5655 5652 5649 5646 5643 5639 5636 5634 5631 5629 5625 5622 5618 5615 5613 5609 5606 5604 5604 5601 5599 5598 5596 5595 5593 5591 5589 5588 5587 5587 5586 5586 5586 5586 5586 5587 5587 5587 5588 5587 5588 5590
5654 5651 5649 5647 5643 5640 5637 5634 5631 5628 5625 5621 5618 5614 5611 5608 5603 5601 5598 5597 5596 5594 5592 5591 5591 5589 5588 5586 5584 5583 5582 5581 5580 5579 5580 5580 5580 5581 5581 5582 5581 5581 5583
5650 5648 5647 5644 5640 5637 5635 5631 5627 5624 5620 5617 5614 5610 5606 5603 5600 5597 5594 5592 5591 5590 5589 5587 5587 5587 5584 5583 5581 5581 5579 5578 5576 5575 5574 5575 5576 5576 5576 5576 5576 5577 5578
5647 5646 5645 5642 5638 5635 5632 5628 5624 5621 5618 5615 5611 5607 5604 5600 5597 5594 5590 5589 5588 5587 5586 5585 5583 5581 5579 5577 5577 5577 5577 5576 5575 5574 5573 5573 5574 5573 5572 5572 5572 5573 5576
5645 5644 5642 5640 5636 5632 5628 5625 5623 5619 5616 5612 5609 5606 5602 5598 5594 5591 5587 5586 5585 5584 5583 5582 5580 5578 5574 5572 5573 5572 5572 5572 5573 5572 5571 5571 5571 5570 5568 5567 5568 5567 5569
5644 5642 5641 5638 5634 5630 5626 5623 5620 5617 5614 5611 5608 5605 5601 5597 5592 5588 5584 5583 5582 5581 5581 5579 5577 5574 5571 5569 5568 5568 5567 5568 5568 5569 5568 5569 5569 5569 5568 5566 5565 5564 5565
5644 5642 5639 5636 5633 5630 5626 5622 5619 5616 5613 5610 5606 5604 5601 5597 5592 5587 5583 5580 5579 5578 5577 5576 5575 5572 5569 5566 5564 5563 5563 5562 5562 5563 5564 5566 5567 5567 5567 5566 5565 5563 5562
5642 5640 5637 5635 5632 5630 5624 5621 5618 5614 5611 5608 5605 5602 5599 5596 5592 5587 5583 5578 5575 5574 5574 5573 5572 5569 5567 5564 5562 5562 5560 5558 5559 5560 5561 5562 5563 5563 5564 5565 5564 5563 5562
5640 5637 5635 5633 5630 5627 5623 5619 5616 5613 5610 5607 5604 5601 5598 5596 5591 5585 5581 5578 5575 5572 5572 5571 5569 5567 5565 5564 5563 5561 5558 5557 5557 5557 5557 5558 5559 5560 5560 5560 5561 5561 5561
5638 5635 5633 5631 5628 5625 5622 5619 5615 5613 5609 5606 5603 5599 5596 5592 5587 5583 5580 5578 5575 5572 5569 5568 5568 5566 5564 5563 5562 5560 5558 5556 5555 5554 5554 5554 5555 5555 5555 5555 5555 5555 5555
5636 5634 5632 5631 5628 5624 5621 5617 5615 5611 5608 5602 5600 5597 5592 5588 5583 5577 5574 5573 5570 5567 5563 5565 5566 5566 5564 5562 5560 5559 5558 5555 5552 5550 5549 5549 5549 5549 5549 5550 5550 5550 5549
5636 5634 5632 5631 5628 5625 5621 5617 5614 5610 5607 5603 5598 5593 5589 5585 5581 5577 5573 5569 5566 5562 5560 5562 5563 5562 5560 5558 5557 5555 5554 5552 5550 5548 5546 5544 5543 5543 5543 5544 5544 5544 5543
5636 5634 5632 5631 5629 5625 5622 5618 5613 5609 5605 5601 5598 5592 5587 5583 5579 5576 5572 5568 5565 5561 5559 5560 5559 5558 5556 5555 5553 5550 5548 5547 5545 5543 5541 5539 5538 5537 5537 5537 5537 5537 5537
5637 5636 5633 5631 5629 5626 5623 5619 5616 5611 5606 5603 5598 5592 5587 5583 5579 5575 5570 5566 5567 5564 5560 5558 5556 5554 5552 5549 5547 5544 5542 5541 5539 5537 5535 5533 5532 5531 5531 5531 5531 5531 5531
5638 5637 5634 5632 5629 5626 5623 5620 5616 5612 5607 5603 5599 5594 5588 5584 5579 5574 5569 5565 5564 5561 5559 5556 5553 5550 5547 5544 5541 5538 5535 5533 5530 5529 5528 5527 5526 5525 5525 5525 5525 5525 5526
5638 5634 5632 5630 5628 5625 5622 5619 5615 5611 5607 5602 5597 5593 5589 5584 5579 5575 5570 5566 5561 5558 5555 5552 5549 5545 5542 5539 5535 5532 5529 5527 5524 5521 5519 5519 5519 5519 5518 5519 5519 5519 5520
5640 5637 5631 5629 5627 5624 5621 5617 5614 5610 5605 5600 5596 5591 5585 5582 5577 5573 5569 5564 5559 5555 5551 5547 5544 5540 5536 5532 5529 5526 5522 5519 5516 5513 5512 5511 5512 5511 5512 5513 5513 5514 5515
5641 5638 5633 5630 5627 5624 5620 5618 5614 5609 5604 5598 5594 5591 5585 5580 5576 5571 5566 5561 5556 5551 5547 5542 5538 5534 5529 5525 5521 5518 5514 5510 5507 5505 5504 5504 5505 5505 5506 5506 5508 5508 5508
5640 5637 5634 5631 5628 5623 5619 5616 5612 5607 5602 5597 5592 5588 5584 5579 5574 5568 5563 5558 5552 5547 5542 5537 5532 5527 5523 5518 5514 5509 5504 5500 5497 5496 5496 5497 5497 5498 5499 5500 5501 5502 5502
5640 5637 5634 5631 5627 5623 5619 5614 5610 5605 5600 5595 5590 5586 5581 5576 5570 5565 5559 5554 5548 5543 5537 5532 5526 5521 5516 5511 5507 5502 5496 5491 5489 5489 5488 5488 5490 5492 5493 5494 5495 5495 5496
5640 5637 5634 5630 5626 5622 5618 5614 5609 5604 5599 5594 5588 5583 5579 5573 5568 5562 5556 5550 5545 5540 5534 5528 5523 5517 5511 5505 5500 5495 5489 5486 5484 5482 5482 5484 5486 5487 5488 5489 5489 5490 5490
5639 5637 5633 5630 5626 5622 5617 5613 5608 5603 5597 5592 5586 5581 5576 5570 5565 5559 5553 5548 5542 5536 5530 5525 5519 5512 5507 5501 5495 5489 5486 5483 5480 5478 5477 5479 5482 5483 5483 5484 5484 5484 5485